Location: Newark
(49.7467°N, 13.3728°E)
Time: 17:24:36
(UTC+00:00)

Envisat - Visible Passes

Search period start: 22 September 2020 00:00
Search period end: 02 October 2020 00:00
Orbit: 764 x 766 km, 98.1° (Epoch: 22 September)

Date Brightness Start Highest point End Pass type
(mag) Time Alt. Az. Time Alt. Az. Time Alt. Az.
22 Sep 6.4 03:43:15 10° ENE 03:45:16 12° E 03:47:16 10° ESE visible
23 Sep 6.2 17:43:47 10° SW 17:46:53 16° W 17:50:00 10° NW visible
24 Sep 6.0 04:07:20 10° NE 04:11:04 20° E 04:14:47 10° SE visible
26 Sep 6.1 17:31:43 10° SW 17:35:23 20° W 17:39:04 10° NW visible
27 Sep 6.1 03:56:23 10° NE 03:59:34 16° E 04:02:44 10° SE visible
28 Sep 6.6 17:59:19 10° WSW 18:01:11 12° W 18:03:04 10° WNW visible
29 Sep 5.6 04:21:01 10° NE 04:25:18 27° E 04:29:34 10° SSE visible
29 Sep 5.8 17:19:49 10° SW 17:23:54 24° W 17:28:01 10° NW visible
30 Sep 6.4 03:45:38 10° ENE 03:48:03 13° E 03:50:27 10° ESE visible
01 Oct 6.3 17:46:49 10° WSW 17:49:39 15° W 17:52:31 10° NW visible
